This demonstration page uses our WeatherBlox Daily Observations layout. Learn more.

Left ArrowRight Arrow

Hourly Observations for March 22, 2021

Temp ( °F °C ) Dew Point ( °F °C ) Humidity (%) Winds ( mph kmh ) Pressure ( in mb ) Visibility ( mi km ) Precip ( " mm )
12:53 am 00:53 Clear 48 8.9 42 5.6 80 80 Calm 30.23 1024 10 16 0.00 0.00
1:53 am 01:53 Clear 50 10 42 5.6 74 74 Calm 30.22 1023 10 16 0.00 0.00
2:53 am 02:53 Clear 50 10 40 4.4 68 68 Calm 30.21 1023 10 16 0.00 0.00
4:53 am 04:53 Clear 49 9.4 38 3.3 66 66 ENE 3 6 30.19 1022 10 16 0.00 0.00
5:53 am 05:53 Clear 47 8.3 40 4.4 77 77 Calm 30.19 1022 10 16 0.00 0.00
6:53 am 06:53 Clear 48 8.9 39 3.9 71 71 Calm 30.20 1023 10 16 0.00 0.00
7:53 am 07:53 Sunny 49 9.4 38 3.3 66 66 NE 5 7 30.21 1023 10 16 0.00 0.00
8:53 am 08:53 Sunny 55 12.8 39 3.9 55 55 ENE 14 22 30.22 1023 10 16 0.00 0.00
9:53 am 09:53 Sunny 59 15 39 3.9 48 48 ENE 13 20 30.22 1023 10 16 0.00 0.00
10:53 am 10:53 Sunny 61 16.1 40 4.4 46 46 ENE 14 22 30.22 1023 10 16 0.00 0.00
11:53 am 11:53 Sunny 65 18.3 42 5.6 43 43 NE 15 24 30.22 1023 10 16 0.00 0.00
12:53 pm 12:53 Sunny 66 18.9 41 5 40 40 E 9 15 30.19 1022 10 16 0.00 0.00
1:53 pm 13:53 Sunny 68 20 42 5.6 39 39 E 10 17 30.14 1021 10 16 0.00 0.00
2:53 pm 14:53 Sunny 70 21.1 42 5.6 37 37 VRB 5 7 30.09 1019 10 16 0.00 0.00
3:53 pm 15:53 Sunny 70 21.1 40 4.4 34 34 NE 10 17 30.07 1018 10 16 0.00 0.00
4:53 pm 16:53 Sunny 70 21.1 38 3.3 31 31 ENE 10 17 30.04 1017 10 16 0.00 0.00
5:53 pm 17:53 Sunny 71 21.7 37 2.8 29 29 E 9 15 30.02 1017 10 16 0.00 0.00
6:53 pm 18:53 Sunny 69 20.6 37 2.8 31 31 ESE 7 11 30.03 1017 10 16 0.00 0.00
7:53 pm 19:53 Clear 68 20 40 4.4 36 36 E 5 7 30.04 1017 10 16 0.00 0.00
8:53 pm 20:53 Clear 65 18.3 40 4.4 40 40 E 6 9 30.04 1017 10 16 0.00 0.00
9:53 pm 21:53 Clear 60 15.6 41 5 50 50 Calm 30.06 1018 10 16 0.00 0.00
10:53 pm 22:53 Clear 59 15 43 6.1 56 56 E 5 7 30.06 1018 10 16 0.00 0.00
11:53 pm 23:53 Clear 60 15.6 42 5.6 52 52 E 3 6 30.06 1018 10 16 0.00 0.00

Powered by AerisWeather